This demonstration page uses our WeatherBlox Daily Observations layout. Learn more.

Left ArrowRight Arrow

39.92423, -83.80882

Hourly Observations for March 18, 2019

Temp ( °F °C ) Dew Point ( °F °C ) Humidity (%) Winds ( mph kmh ) Pressure ( in mb ) Visibility ( mi km ) Precip ( " mm )
12:04 am 00:04 Mostly Cloudy 32 0 30 -1 93 93 NW 7 11 30.31 1027 10 16.0934 0 0
12:10 am 00:10 Partly Cloudy 32 0 30 -1 93 93 NW 7 11 30.31 1027 10 16.0934 0 0
12:56 am 00:56 Clear 30 -1.1 29 -1.7 96 96 Calm 30.29 1026 10 16.0934 0 0
1:56 am 01:56 Mostly Clear 29 -1.7 29 -1.7 100 100 W 3 6 30.3 1026 7 11.26538 0 0
2:56 am 02:56 Cloudy 29 -1.7 29 -1.7 100 100 Calm 30.31 1026 7 11.26538 0 0
3:56 am 03:56 Cloudy with Mist and Fog 30 -1.1 30 -1.1 100 100 Calm 30.3 1026 5 8.0467 0 0
4:44 am 04:44 Cloudy with Light Snow 30 -1 30 -1 100 100 WNW 7 11 30.32 1027 1.75 2.816345 0 0.0254
5:04 am 05:04 Mostly Cloudy with Light Snow 30 -1 30 -1 100 100 W 6 9 30.32 1027 3 4.82802 0.01 0.254
5:16 am 05:16 Mostly Cloudy with Mist and Fog 28 -2 28 -2 100 100 W 6 9 30.32 1027 3 4.82802 0.01 0.254
5:56 am 05:56 Mostly Clear with Mist and Fog 27 -2.8 27 -2.8 100 100 W 6 9 30.31 1026 2.5 4.02335 0.01 0.254
6:04 am 06:04 Mostly Clear with Mist and Fog 27 -3 27 -3 100 100 W 6 9 30.34 1027 3 4.82802 0 0
6:31 am 06:31 Clear with Mist and Fog 27 -3 27 -3 100 100 W 3 6 30.35 1028 2.5 4.02335 0 0
6:54 am 06:54 Partly Cloudy with Mist and Fog 25 -4 25 -4 100 100 W 6 9 30.36 1028 2.5 4.02335 0 0
6:56 am 06:56 Partly Cloudy with Mist and Fog 25 -3.9 25 -3.9 100 100 W 6 9 30.33 1027 2.5 4.02335 0 0
7:03 am 07:03 Mostly Cloudy with Mist and Fog 28 -2 28 -2 100 100 W 8 13 30.35 1028 3 4.82802 0 0
7:18 am 07:18 Mostly Cloudy with Mist and Fog 28 -2 28 -2 100 100 WNW 6 9 30.35 1028 4 6.43736 0 0
7:31 am 07:31 Partly Cloudy with Mist and Fog 27 -3 27 -3 100 100 W 6 9 30.36 1028 3 4.82802 0 0
7:39 am 07:39 Mostly Clear with Mist and Fog 27 -3 27 -3 100 100 W 6 9 30.37 1028 1.75 2.816345 0 0
7:56 am 07:56 Sunny with Mist and Fog 25 -3.9 25 -3.9 100 100 WNW 6 9 30.34 1028 1 1.60934 0 0
8:08 am 08:08 Sunny with Mist and Fog 27 -3 27 -3 100 100 WNW 6 9 30.37 1028 1.5 2.41401 0 0
8:16 am 08:16 Partly Cloudy with Mist and Fog 27 -3 27 -3 100 100 WNW 6 9 30.38 1029 1.5 2.41401 0 0
8:47 am 08:47 Sunny with Mist and Fog 28 -2 28 -2 100 100 WNW 6 9 30.37 1029 4 6.43736 0 0
8:56 am 08:56 Sunny with Mist and Fog 29 -1.7 29 -1.7 100 100 NW 6 9 30.35 1028 6 9.65604 0 0
9:56 am 09:56 Sunny 32 0 25 -3.9 75 75 NW 12 19 30.37 1029 10 16.0934 0 0
10:56 am 10:56 Sunny 34 1.1 23 -5 64 64 NW 10 17 30.39 1029 10 16.0934 0 0
11:56 am 11:56 Sunny 36 2.2 25 -3.9 64 64 NNW 14 22 30.4 1029 10 16.0934 0 0
12:56 pm 12:56 Sunny 38 3.3 23 -5 55 55 NNW 9 15 30.4 1030 10 16.0934 0 0
1:56 pm 13:56 Sunny 39 3.9 22 -5.6 50 50 WNW 8 13 30.4 1029 10 16.0934 0 0
2:56 pm 14:56 Sunny 42 5.6 21 -6.1 43 43 NW 10 17 30.38 1029 10 16.0934 0 0
3:56 pm 15:56 Sunny 42 5.6 19 -7.2 40 40 NNW 9 15 30.37 1028 10 16.0934 0 0
4:56 pm 16:56 Mostly Sunny 42 5.6 21 -6.1 43 43 NNW 10 17 30.37 1028 10 16.0934 0 0
5:56 pm 17:56 Mostly Cloudy 42 5.6 22 -5.6 45 45 WNW 13 20 30.38 1029 10 16.0934 0 0
6:56 pm 18:56 Mostly Sunny 41 5 22 -5.6 47 47 WNW 12 19 30.38 1029 10 16.0934 0 0
7:56 pm 19:56 Clear 36 2.2 21 -6.1 55 55 N 3 6 30.4 1029 10 16.0934 0 0
8:56 pm 20:56 Partly Cloudy 34 1.1 24 -4.4 67 67 Calm 30.42 1030 10 16.0934 0 0
9:56 pm 21:56 Mostly Cloudy 34 1.1 22 -5.6 61 61 Calm 30.42 1030 10 16.0934 0 0
10:56 pm 22:56 Cloudy 32 0 25 -3.9 75 75 Calm 30.42 1030 10 16.0934 0 0
11:56 pm 23:56 Cloudy 32 0 27 -2.8 82 82 Calm 30.43 1031 10 16.0934 0 0

Powered by AerisWeather